Flag for Germany Weather past 2 weeks in Jülich, North Rhine-Westphalia, Germany

Now
57 °F

Cool.


Feels Like: 57 °F
Forecast: 43 / 54 °F
Wind: 2 mph from Southwest

Location: Noervenich

Current Time: Apr 26, 2015 at 12:34:16 PM

Latest Report: Apr 26, 2015 at 10:00 AM


Visibility: 9 mi

Pressure: 29.76 "Hg

Humidity: 83%

Dew point: 52 °F

Location of JülichLocation

Historic Weather in Jülich — Graph

°F

Jülich temperature yesterday

Maximum temperature yesterday: 60 °F (at 12:00 AM)
Minimum temperature yesterday: 52 °F (at 10:00 AM)
Average temperature yesterday: 56 °F

Past Weeks' High & Low Weather Summary

 TemperatureHumidityPressure
High75 °F (Apr 15, 4:00 PM)95% (Apr 23, 6:00 AM)30.50 "Hg (Apr 23, 6:00 AM)
Low33 °F (Apr 19, 7:00 AM)27% (Apr 24, 4:00 PM)29.75 "Hg (Apr 26, 6:00 AM)
Average53 °F63%30.17 "Hg
* Reported Apr 11 10:00 AM — Apr 26 10:00 AM, Jülich, Weather by CustomWeather, © 2015

Note: Actual official high and low records may vary slightly from our data, if they occured in-between our weather recording intervals... More about our weather records

Advertising

Jülich weather history for previous 24 hours

 ConditionsComfort  
Time TempWeatherWind HumidityBarometerVisibility
10:00 AM
Sun, Apr 26
57 °FCool.2 mph83%29.76 "Hg9 mi
9:00 AM56 °FCool.1 mph83%29.76 "Hg8 mi
8:00 AM52 °FCool.1 mph94%29.76 "Hg6 mi
7:00 AM52 °FCool.No wind92%29.75 "Hg4 mi
6:00 AM52 °FCool.1 mph94%29.75 "Hg5 mi
4:00 AM53 °FCool.1 mph93%29.76 "Hg6 mi
3:00 AM53 °FCool.2 mph92%29.77 "Hg4 mi
2:00 AM54 °FCool.3 mph88%29.79 "Hg4 mi
1:00 AM53 °FCool.2 mph82%29.79 "Hg6 mi
12:00 AM53 °FCool.2 mph83%29.79 "Hg6 mi
10:00 PM
Sat, Apr 25
55 °FCool.1 mph85%29.79 "Hg5 mi
9:00 PM57 °FCool.1 mph79%29.78 "Hg6 mi
7:00 PM60 °FCool.2 mph73%29.76 "Hg8 mi
6:00 PM60 °FCool.5 mph71%29.76 "Hg8 mi
4:00 PM58 °FCool.5 mph77%29.77 "Hg7 mi
3:00 PM57 °FCool.2 mph86%29.78 "Hg7 mi
1:00 PM56 °FCool.1 mph88%29.78 "Hg4 mi
12:00 PM58 °FCool.N/A78%29.78 "Hg4 mi
Weather by CustomWeather, © 2015

See weather overviewHow to use our weather pages